Weather History for Cody, WY

Change the Weather History Date:

Wednesday, February 13, 2013

  Actual Average Record
Temperature  
Mean Temperature 36 °F -  
Max Temperature 44 °F 39 °F 67 °F (1934)
Min Temperature 28 °F 19 °F -26 °F (1936)
Degree Days  
Heating Degree Days 29    
Moisture  
Dew Point 19 °F    
Average Humidity 49    
Maximum Humidity 86    
Minimum Humidity 34    
Precipitation  
Precipitation 0.00 in - - ()
Sea Level Pressure  
Sea Level Pressure 29.92 in    
Wind  
Wind Speed 16 mph (West)    
Max Wind Speed 26 mph    
Max Gust Speed 43 mph    
Visibility 10 miles    
Events      
Averages and records for this station are not official NWS values.
T = Trace of Precipitation, MM = Missing Value Source: NWS Daily Summary

Daily Weather History Graph

Daily Weather History Graph

Search for Another Location

Airport:

Trip Planner

Search our weather history database for the weather conditions in past years. The results will help you decide how hot, cold, wet, or windy it might be!

Date:

Astronomy

Feb. 13, 2013 Rise Set
Actual Time 7:18 AM MST 5:42 PM MST
Civil Twilight 6:48 AM MST 6:12 PM MST
Nautical Twilight 6:14 AM MST 6:46 PM MST
Astronomical Twilight 5:40 AM MST 7:20 PM MST
Moon 8:38 AM MST (2/13) 10:01 PM MST (2/13)
Length of Visible Light 11h 24m
Length of Day
10h 24m
Waxing Crescent, 14% of the Moon is Illuminated
Feb 13
Waxing Crescent
Feb 17
First Quarter
Feb 25
Full
Mar 4
Last Quarter
Mar 11
New

Hourly Weather History & Observations

Time (MST) Temp. Windchill Dew Point Humidity Pressure Visibility Wind Dir Wind Speed Gust Speed Precip Events Conditions
12:15 AM 35.6 °F 24.0 °F 15.8 °F 44% 29.89 in 10.0 mi WSW 23.0 mph 39.1 mph N/A   Clear
12:35 AM 35.6 °F 23.4 °F 15.8 °F 44% 29.89 in 10.0 mi West 25.3 mph 40.3 mph N/A   Clear
12:55 AM 35.6 °F 23.2 °F 15.8 °F 44% 29.88 in 10.0 mi WSW 26.5 mph 39.1 mph N/A   Clear
1:15 AM 35.6 °F 23.7 °F 15.8 °F 44% 29.88 in 10.0 mi WSW 24.2 mph 42.6 mph N/A   Clear
1:35 AM 35.6 °F 24.5 °F 15.8 °F 44% 29.90 in 10.0 mi West 20.7 mph 42.6 mph N/A   Clear
1:55 AM 35.6 °F 24.0 °F 15.8 °F 44% 29.90 in 10.0 mi WSW 23.0 mph 31.1 mph N/A   Clear
2:35 AM 35.6 °F 23.4 °F 15.8 °F 44% 29.92 in 10.0 mi WSW 25.3 mph 42.6 mph N/A   Clear
2:55 AM 35.6 °F 25.5 °F 17.6 °F 48% 29.92 in 10.0 mi West 17.3 mph 35.7 mph N/A   Clear
3:15 AM 35.6 °F 26.2 °F 17.6 °F 48% 29.93 in 10.0 mi WSW 15.0 mph 31.1 mph N/A   Clear
3:35 AM 33.8 °F 25.3 °F 17.6 °F 52% 29.91 in 10.0 mi West 11.5 mph 23.0 mph N/A   Clear
4:15 AM 35.6 °F 27.1 °F 17.6 °F 48% 29.89 in 10.0 mi WNW 12.7 mph 20.7 mph N/A   Clear
4:35 AM 35.6 °F 24.2 °F 17.6 °F 48% 29.89 in 10.0 mi West 21.9 mph 35.7 mph N/A   Clear
4:55 AM 35.6 °F 24.2 °F 17.6 °F 48% 29.89 in 10.0 mi WSW 21.9 mph 40.3 mph N/A   Clear
5:15 AM 35.6 °F 28.6 °F 19.4 °F 52% 29.89 in 10.0 mi WSW 9.2 mph 29.9 mph N/A   Clear
5:35 AM 35.6 °F 27.1 °F 19.4 °F 52% 29.90 in 10.0 mi West 12.7 mph 26.5 mph N/A   Clear
5:55 AM 35.6 °F 28.0 °F 19.4 °F 52% 29.91 in 10.0 mi WSW 10.4 mph 26.5 mph N/A   Clear
6:15 AM 35.6 °F 29.2 °F 19.4 °F 52% 29.92 in 10.0 mi SW 8.1 mph - N/A   Partly Cloudy
6:35 AM 37.4 °F 33.8 °F 19.4 °F 48% 29.91 in 10.0 mi WSW 4.6 mph - N/A   Scattered Clouds
6:55 AM 35.6 °F 25.9 °F 19.4 °F 52% 29.89 in 10.0 mi WSW 16.1 mph 32.2 mph N/A   Partly Cloudy
7:15 AM 35.6 °F 24.5 °F 19.4 °F 52% 29.88 in 10.0 mi West 20.7 mph 26.5 mph N/A   Clear
7:35 AM 37.4 °F 26.9 °F 17.6 °F 45% 29.88 in 10.0 mi WSW 20.7 mph 29.9 mph N/A   Clear
7:55 AM 37.4 °F 27.8 °F 17.6 °F 45% 29.89 in 10.0 mi WSW 17.3 mph 28.8 mph N/A   Scattered Clouds
8:15 AM 37.4 °F 30.8 °F 17.6 °F 45% 29.88 in 10.0 mi West 9.2 mph 31.1 mph N/A   Mostly Cloudy
8:35 AM 37.4 °F 28.9 °F 17.6 °F 45% 29.88 in 10.0 mi SW 13.8 mph 23.0 mph N/A   Scattered Clouds
8:55 AM 39.2 °F 32.5 °F 19.4 °F 45% 29.87 in 10.0 mi SSW 10.4 mph 17.3 mph N/A   Mostly Cloudy
9:15 AM 42.8 °F 38.0 °F 17.6 °F 36% 29.88 in 10.0 mi SW 8.1 mph - N/A   Overcast
9:35 AM 42.8 °F 40.1 °F 17.6 °F 36% 29.90 in 10.0 mi SSW 4.6 mph - N/A   Mostly Cloudy
9:55 AM 42.8 °F 37.5 °F 19.4 °F 39% 29.90 in 10.0 mi North 9.2 mph 17.3 mph N/A   Overcast
10:15 AM 42.8 °F 37.0 °F 19.4 °F 39% 29.90 in 10.0 mi WNW 10.4 mph - N/A   Partly Cloudy
10:35 AM 42.8 °F 35.8 °F 17.6 °F 36% 29.90 in 10.0 mi WNW 13.8 mph 19.6 mph N/A   Clear
10:55 AM 44.6 °F 39.7 °F 17.6 °F 34% 29.90 in 10.0 mi WNW 9.2 mph 17.3 mph N/A   Clear
11:15 AM 44.6 °F 39.7 °F 17.6 °F 34% 29.90 in 10.0 mi WSW 9.2 mph 19.6 mph N/A   Partly Cloudy
11:35 AM 44.6 °F 36.1 °F 17.6 °F 34% 29.89 in 10.0 mi West 21.9 mph 28.8 mph N/A   Clear
11:55 AM 44.6 °F 36.6 °F 17.6 °F 34% 29.89 in 10.0 mi WSW 19.6 mph 29.9 mph N/A   Clear
12:15 PM 44.6 °F 36.4 °F 17.6 °F 34% 29.88 in 10.0 mi WSW 20.7 mph 27.6 mph N/A   Clear
12:55 PM 44.6 °F 35.9 °F 17.6 °F 34% 29.89 in 10.0 mi West 23.0 mph 33.4 mph N/A   Scattered Clouds
1:16 PM 44.6 °F 36.9 °F 17.6 °F 34% 29.89 in 10.0 mi WSW 18.4 mph 27.6 mph N/A   Scattered Clouds
1:35 PM 42.8 °F 35.1 °F 17.6 °F 36% 29.89 in 10.0 mi West 16.1 mph 31.1 mph N/A   Partly Cloudy
2:15 PM 42.8 °F 34.5 °F 17.6 °F 36% 29.90 in 10.0 mi West 18.4 mph 32.2 mph N/A   Partly Cloudy
2:35 PM 44.6 °F 37.2 °F 17.6 °F 34% 29.89 in 10.0 mi WSW 17.3 mph 29.9 mph N/A   Partly Cloudy
2:55 PM 42.8 °F 36.2 °F 17.6 °F 36% 29.90 in 10.0 mi West 12.7 mph 27.6 mph N/A   Scattered Clouds
3:15 PM 42.8 °F 36.6 °F 17.6 °F 36% 29.90 in 10.0 mi WSW 11.5 mph 18.4 mph N/A   Mostly Cloudy
3:55 PM 42.8 °F 35.4 °F 17.6 °F 36% 29.91 in 10.0 mi WSW 15.0 mph 24.2 mph N/A   Mostly Cloudy
4:35 PM 41.0 °F 33.9 °F 17.6 °F 39% 29.92 in 10.0 mi West 12.7 mph 19.6 mph N/A   Mostly Cloudy
4:55 PM 41.0 °F 33.1 °F 17.6 °F 39% 29.93 in 10.0 mi West 15.0 mph 20.7 mph N/A   Mostly Cloudy
5:15 PM 39.2 °F 32.0 °F 17.6 °F 42% 29.93 in 10.0 mi WSW 11.5 mph 16.1 mph N/A   Mostly Cloudy
5:55 PM 39.2 °F 34.2 °F 17.6 °F 42% 29.94 in 10.0 mi West 6.9 mph - N/A   Overcast
6:15 PM 37.4 °F 30.3 °F 21.2 °F 52% 29.95 in 10.0 mi NE 10.4 mph - N/A   Overcast
6:35 PM 35.6 °F 29.2 °F 23.0 °F 60% 29.96 in 10.0 mi NE 8.1 mph - N/A   Overcast
6:55 PM 35.6 °F 29.9 °F 23.0 °F 60% 29.96 in 10.0 mi East 6.9 mph - N/A   Overcast
7:15 PM 33.8 °F - 21.2 °F 60% 29.97 in 10.0 mi Calm Calm - N/A   Overcast
7:55 PM 33.8 °F 30.8 °F 24.8 °F 70% 29.98 in 10.0 mi NE 3.5 mph - N/A   Overcast
8:15 PM 33.8 °F 30.8 °F 24.8 °F 70% 29.98 in 10.0 mi NE 3.5 mph - N/A   Overcast
8:35 PM 32.0 °F 25.6 °F 24.8 °F 75% 29.98 in 10.0 mi NNE 6.9 mph - N/A   Overcast
8:55 PM 32.0 °F 25.6 °F 24.8 °F 75% 29.99 in 10.0 mi North 6.9 mph - N/A   Overcast
9:15 PM 32.0 °F 24.2 °F 24.8 °F 75% 29.99 in 10.0 mi North 9.2 mph - N/A   Overcast
9:55 PM 30.2 °F 24.3 °F 24.8 °F 80% 29.99 in 10.0 mi NNE 5.8 mph - N/A   Overcast
10:15 PM 30.2 °F 24.3 °F 24.8 °F 80% 30.00 in 10.0 mi NE 5.8 mph - N/A   Overcast
10:35 PM 30.2 °F 24.3 °F 26.6 °F 86% 30.01 in 10.0 mi NE 5.8 mph - N/A   Overcast
10:55 PM 28.4 °F 24.6 °F 24.8 °F 86% 30.01 in 10.0 mi NNE 3.5 mph - N/A   Overcast
11:15 PM 28.4 °F - 24.8 °F 86% 30.02 in 10.0 mi Calm Calm - N/A   Overcast